contact:dominique.lefevre@mio.osupytheas.fr, maurice.libes@osupytheas.fr, didier.mallarino@osupytheas.fr
Project:EMSO http://www.emso-fr.org/EMSO-France
Depth: 2436.0 m
Title:EMSO Ligure Ouest : Data MII capteur MICROCAT
DateTime_Computer,Latitude,Longitude,Temperature,Conductivity,Pressure,DateTime_Instrument
DateTime_Computer,Latitude,Longitude,degC,S m-1,dbar,DateTime_Instrument
2023-05-17T00:02:17Z,42.805,6.029,13.3017,4.60080,2470.553,2023-5-17T02:04:29Z
2023-05-17T00:05:20Z,42.805,6.029,13.3014,4.60076,2470.544,2023-5-17T02:07:32Z
2023-05-17T00:08:24Z,42.805,6.029,13.3015,4.60074,2470.507,2023-5-17T02:10:35Z
2023-05-17T00:11:27Z,42.805,6.029,13.3015,4.60077,2470.544,2023-5-17T02:13:38Z
2023-05-17T00:14:30Z,42.805,6.029,13.3015,4.60072,2470.544,2023-5-17T02:16:41Z
2023-05-17T00:17:33Z,42.805,6.029,13.3014,4.60076,2470.567,2023-5-17T02:19:44Z
2023-05-17T00:20:36Z,42.805,6.029,13.3015,4.60077,2470.553,2023-5-17T02:22:48Z
2023-05-17T00:23:39Z,42.805,6.029,13.3014,4.60077,2470.553,2023-5-17T02:25:51Z
2023-05-17T00:26:42Z,42.805,6.029,13.3017,4.60076,2470.567,2023-5-17T02:28:54Z
2023-05-17T00:29:45Z,42.805,6.029,13.3019,4.60077,2470.53,2023-5-17T02:31:57Z
2023-05-17T00:32:48Z,42.805,6.029,13.3016,4.60074,2470.577,2023-5-17T02:35:00Z
2023-05-17T00:35:51Z,42.805,6.029,13.3019,4.60079,2470.53,2023-5-17T02:38:03Z
2023-05-17T00:38:54Z,42.805,6.029,13.3017,4.60077,2470.553,2023-5-17T02:41:06Z
2023-05-17T00:41:57Z,42.805,6.029,13.3013,4.60076,2470.567,2023-5-17T02:44:09Z
2023-05-17T00:45:01Z,42.805,6.029,13.3014,4.60076,2470.553,2023-5-17T02:47:12Z
2023-05-17T00:48:04Z,42.805,6.029,13.3018,4.60074,2470.553,2023-5-17T02:50:15Z
2023-05-17T00:51:07Z,42.805,6.029,13.3018,4.60076,2470.553,2023-5-17T02:53:18Z
2023-05-17T00:54:10Z,42.805,6.029,13.3015,4.60074,2470.544,2023-5-17T02:56:21Z
2023-05-17T00:57:13Z,42.805,6.029,13.3011,4.60078,2470.553,2023-5-17T02:59:24Z
2023-05-17T01:00:16Z,42.805,6.029,13.3015,4.60074,2470.53,2023-5-17T03:02:28Z
2023-05-17T01:03:19Z,42.805,6.029,13.3014,4.60074,2470.577,2023-5-17T03:05:31Z
2023-05-17T01:06:22Z,42.805,6.029,13.3019,4.60075,2470.544,2023-5-17T03:08:34Z
2023-05-17T01:09:25Z,42.805,6.029,13.3016,4.60079,2470.577,2023-5-17T03:11:37Z
2023-05-17T01:12:28Z,42.805,6.029,13.3016,4.60079,2470.567,2023-5-17T03:14:40Z
2023-05-17T01:15:31Z,42.805,6.029,13.3020,4.60079,2470.567,2023-5-17T03:17:43Z
2023-05-17T01:18:34Z,42.805,6.029,13.3018,4.60073,2470.553,2023-5-17T03:20:46Z
2023-05-17T01:21:37Z,42.805,6.029,13.3016,4.60078,2470.6,2023-5-17T03:23:49Z
2023-05-17T01:24:41Z,42.805,6.029,13.3015,4.60077,2470.577,2023-5-17T03:26:52Z
2023-05-17T01:27:44Z,42.805,6.029,13.3019,4.60077,2470.591,2023-5-17T03:29:55Z
2023-05-17T01:30:47Z,42.805,6.029,13.3016,4.60076,2470.544,2023-5-17T03:32:58Z
2023-05-17T01:33:50Z,42.805,6.029,13.3016,4.60072,2470.614,2023-5-17T03:36:01Z
2023-05-17T01:36:53Z,42.805,6.029,13.3014,4.60074,2470.553,2023-5-17T03:39:05Z
2023-05-17T01:39:56Z,42.805,6.029,13.3014,4.60074,2470.544,2023-5-17T03:42:08Z
2023-05-17T01:42:59Z,42.805,6.029,13.3014,4.60075,2470.577,2023-5-17T03:45:11Z
2023-05-17T01:46:02Z,42.805,6.029,13.3019,4.60075,2470.6,2023-5-17T03:48:14Z
2023-05-17T01:49:05Z,42.805,6.029,13.3017,4.60074,2470.577,2023-5-17T03:51:17Z
2023-05-17T01:52:08Z,42.805,6.029,13.3017,4.60078,2470.577,2023-5-17T03:54:20Z
2023-05-17T01:55:11Z,42.805,6.029,13.3016,4.60074,2470.6,2023-5-17T03:57:23Z
2023-05-17T01:58:14Z,42.805,6.029,13.3015,4.60076,2470.577,2023-5-17T04:00:26Z
2023-05-17T02:01:18Z,42.805,6.029,13.3017,4.60072,2470.6,2023-5-17T04:03:29Z
2023-05-17T02:04:21Z,42.805,6.029,13.3014,4.60075,2470.6,2023-5-17T04:06:32Z
2023-05-17T02:07:24Z,42.805,6.029,13.3014,4.60075,2470.6,2023-5-17T04:09:35Z
2023-05-17T02:10:27Z,42.805,6.029,13.3016,4.60072,2470.624,2023-5-17T04:12:38Z
2023-05-17T02:13:30Z,42.805,6.029,13.3014,4.60079,2470.6,2023-5-17T04:15:41Z
2023-05-17T02:16:33Z,42.805,6.029,13.3015,4.60074,2470.6,2023-5-17T04:18:45Z
2023-05-17T02:19:36Z,42.805,6.029,13.3015,4.60076,2470.614,2023-5-17T04:21:48Z
2023-05-17T02:22:39Z,42.805,6.029,13.3015,4.60072,2470.624,2023-5-17T04:24:51Z
2023-05-17T02:25:42Z,42.805,6.029,13.3015,4.60075,2470.553,2023-5-17T04:27:54Z
2023-05-17T02:28:45Z,42.805,6.029,13.3015,4.60074,2470.614,2023-5-17T04:30:57Z
2023-05-17T02:31:48Z,42.805,6.029,13.3017,4.60073,2470.646,2023-5-17T04:34:00Z
2023-05-17T02:34:51Z,42.805,6.029,13.3015,4.60073,2470.614,2023-5-17T04:37:03Z
2023-05-17T02:37:54Z,42.805,6.029,13.3015,4.60076,2470.661,2023-5-17T04:40:06Z
2023-05-17T02:40:58Z,42.805,6.029,13.3015,4.60074,2470.646,2023-5-17T04:43:09Z
2023-05-17T02:44:01Z,42.805,6.029,13.3017,4.60073,2470.637,2023-5-17T04:46:12Z
2023-05-17T02:47:04Z,42.805,6.029,13.3014,4.60076,2470.646,2023-5-17T04:49:15Z
2023-05-17T02:50:07Z,42.805,6.029,13.3014,4.60074,2470.646,2023-5-17T04:52:18Z
2023-05-17T02:53:10Z,42.805,6.029,13.3015,4.60077,2470.67,2023-5-17T04:55:21Z
2023-05-17T02:56:13Z,42.805,6.029,13.3014,4.60074,2470.67,2023-5-17T04:58:25Z
2023-05-17T02:59:16Z,42.805,6.029,13.3015,4.60074,2470.646,2023-5-17T05:01:28Z
2023-05-17T03:02:19Z,42.805,6.029,13.3017,4.60076,2470.637,2023-5-17T05:04:31Z
2023-05-17T03:05:22Z,42.805,6.029,13.3014,4.60075,2470.624,2023-5-17T05:07:34Z
2023-05-17T03:08:25Z,42.805,6.029,13.3017,4.60074,2470.646,2023-5-17T05:10:37Z
2023-05-17T03:11:28Z,42.805,6.029,13.3017,4.60074,2470.646,2023-5-17T05:13:40Z
2023-05-17T03:14:31Z,42.805,6.029,13.3015,4.60079,2470.67,2023-5-17T05:16:43Z
2023-05-17T03:17:34Z,42.805,6.029,13.3014,4.60076,2470.693,2023-5-17T05:19:46Z
2023-05-17T03:20:38Z,42.805,6.029,13.3015,4.60075,2470.717,2023-5-17T05:22:49Z
2023-05-17T03:23:41Z,42.805,6.029,13.3019,4.60081,2470.684,2023-5-17T05:25:52Z
2023-05-17T03:26:44Z,42.805,6.029,13.3019,4.60076,2470.646,2023-5-17T05:28:55Z
2023-05-17T03:29:47Z,42.805,6.029,13.3016,4.60074,2470.67,2023-5-17T05:31:58Z
2023-05-17T03:32:50Z,42.805,6.029,13.3016,4.60076,2470.717,2023-5-17T05:35:02Z
2023-05-17T03:35:53Z,42.805,6.029,13.3018,4.60078,2470.67,2023-5-17T05:38:05Z
2023-05-17T03:38:56Z,42.805,6.029,13.3015,4.60080,2470.67,2023-5-17T05:41:08Z
2023-05-17T03:41:59Z,42.805,6.029,13.3019,4.60078,2470.684,2023-5-17T05:44:11Z
2023-05-17T03:45:02Z,42.805,6.029,13.3014,4.60075,2470.67,2023-5-17T05:47:14Z
2023-05-17T03:48:05Z,42.805,6.029,13.3016,4.60076,2470.693,2023-5-17T05:50:17Z
2023-05-17T03:51:08Z,42.805,6.029,13.3016,4.60075,2470.684,2023-5-17T05:53:20Z
2023-05-17T03:54:11Z,42.805,6.029,13.3014,4.60074,2470.67,2023-5-17T05:56:23Z
2023-05-17T03:57:14Z,42.805,6.029,13.3014,4.60074,2470.693,2023-5-17T05:59:26Z
2023-05-17T04:00:18Z,42.805,6.029,13.3016,4.60074,2470.693,2023-5-17T06:02:29Z
2023-05-17T04:03:21Z,42.805,6.029,13.3018,4.60074,2470.717,2023-5-17T06:05:32Z
2023-05-17T04:06:24Z,42.805,6.029,13.3017,4.60081,2470.717,2023-5-17T06:08:35Z
2023-05-17T04:09:27Z,42.805,6.029,13.3014,4.60079,2470.707,2023-5-17T06:11:38Z
2023-05-17T04:12:30Z,42.805,6.029,13.3016,4.60077,2470.693,2023-5-17T06:14:41Z
2023-05-17T04:15:33Z,42.805,6.029,13.3015,4.60081,2470.717,2023-5-17T06:17:45Z
2023-05-17T04:18:36Z,42.805,6.029,13.3014,4.60079,2470.717,2023-5-17T06:20:48Z
2023-05-17T04:21:39Z,42.805,6.029,13.3013,4.60074,2470.707,2023-5-17T06:23:51Z
2023-05-17T04:24:42Z,42.805,6.029,13.3012,4.60079,2470.707,2023-5-17T06:26:54Z
2023-05-17T04:27:45Z,42.805,6.029,13.3015,4.60078,2470.717,2023-5-17T06:29:57Z
2023-05-17T04:30:48Z,42.805,6.029,13.3014,4.60081,2470.717,2023-5-17T06:33:00Z
2023-05-17T04:33:51Z,42.805,6.029,13.3014,4.60076,2470.693,2023-5-17T06:36:03Z
2023-05-17T04:36:54Z,42.805,6.029,13.3012,4.60074,2470.693,2023-5-17T06:39:06Z
2023-05-17T04:39:58Z,42.805,6.029,13.3015,4.60074,2470.763,2023-5-17T06:42:09Z
2023-05-17T04:43:01Z,42.805,6.029,13.3015,4.60078,2470.754,2023-5-17T06:45:12Z
2023-05-17T04:46:04Z,42.805,6.029,13.3015,4.60076,2470.74,2023-5-17T06:48:15Z
2023-05-17T04:49:07Z,42.805,6.029,13.3014,4.60077,2470.67,2023-5-17T06:51:18Z
2023-05-17T04:52:10Z,42.805,6.029,13.3014,4.60074,2470.74,2023-5-17T06:54:21Z
2023-05-17T04:55:13Z,42.805,6.029,13.3020,4.60078,2470.73,2023-5-17T06:57:25Z
2023-05-17T04:58:16Z,42.805,6.029,13.3014,4.60077,2470.717,2023-5-17T07:00:28Z
2023-05-17T05:01:19Z,42.805,6.029,13.3014,4.60077,2470.717,2023-5-17T07:03:31Z
2023-05-17T05:04:22Z,42.805,6.029,13.3018,4.60074,2470.73,2023-5-17T07:06:34Z
2023-05-17T05:07:25Z,42.805,6.029,13.3015,4.60074,2470.707,2023-5-17T07:09:37Z
2023-05-17T05:10:28Z,42.805,6.029,13.3017,4.60076,2470.717,2023-5-17T07:12:40Z
2023-05-17T05:13:31Z,42.805,6.029,13.3015,4.60074,2470.717,2023-5-17T07:15:43Z
2023-05-17T05:16:34Z,42.805,6.029,13.3014,4.60077,2470.717,2023-5-17T07:18:46Z
2023-05-17T05:19:38Z,42.805,6.029,13.3014,4.60078,2470.717,2023-5-17T07:21:49Z
2023-05-17T05:22:41Z,42.805,6.029,13.3019,4.60077,2470.717,2023-5-17T07:24:52Z
2023-05-17T05:25:44Z,42.805,6.029,13.3014,4.60073,2470.717,2023-5-17T07:27:55Z
2023-05-17T05:28:47Z,42.805,6.029,13.3014,4.60072,2470.74,2023-5-17T07:30:58Z
2023-05-17T05:31:50Z,42.805,6.029,13.3015,4.60077,2470.717,2023-5-17T07:34:02Z
2023-05-17T05:34:53Z,42.805,6.029,13.3015,4.60075,2470.74,2023-5-17T07:37:05Z
2023-05-17T05:37:56Z,42.805,6.029,13.3017,4.60075,2470.73,2023-5-17T07:40:08Z
2023-05-17T05:40:59Z,42.805,6.029,13.3014,4.60077,2470.693,2023-5-17T07:43:11Z
2023-05-17T05:44:02Z,42.805,6.029,13.3019,4.60078,2470.73,2023-5-17T07:46:14Z
2023-05-17T05:47:05Z,42.805,6.029,13.3014,4.60076,2470.74,2023-5-17T07:49:17Z
2023-05-17T05:50:08Z,42.805,6.029,13.3013,4.60075,2470.717,2023-5-17T07:52:20Z
2023-05-17T05:53:11Z,42.805,6.029,13.3016,4.60074,2470.73,2023-5-17T07:55:23Z
2023-05-17T05:56:15Z,42.805,6.029,13.3017,4.60078,2470.74,2023-5-17T07:58:26Z
2023-05-17T05:59:18Z,42.805,6.029,13.3016,4.60077,2470.707,2023-5-17T08:01:29Z
2023-05-17T06:02:21Z,42.805,6.029,13.3014,4.60074,2470.73,2023-5-17T08:04:32Z
2023-05-17T06:05:24Z,42.805,6.029,13.3019,4.60076,2470.73,2023-5-17T08:07:35Z
2023-05-17T06:08:27Z,42.805,6.029,13.3019,4.60076,2470.73,2023-5-17T08:10:38Z
2023-05-17T06:11:30Z,42.805,6.029,13.3014,4.60077,2470.754,2023-5-17T08:13:42Z
2023-05-17T06:14:33Z,42.805,6.029,13.3014,4.60076,2470.717,2023-5-17T08:16:45Z
2023-05-17T06:17:36Z,42.805,6.029,13.3019,4.60074,2470.74,2023-5-17T08:19:48Z
2023-05-17T06:20:39Z,42.805,6.029,13.3015,4.60074,2470.74,2023-5-17T08:22:51Z
2023-05-17T06:23:42Z,42.805,6.029,13.3015,4.60074,2470.693,2023-5-17T08:25:54Z
2023-05-17T06:26:45Z,42.805,6.029,13.3016,4.60077,2470.693,2023-5-17T08:28:57Z
2023-05-17T06:29:48Z,42.805,6.029,13.3013,4.60075,2470.717,2023-5-17T08:32:00Z
2023-05-17T06:32:51Z,42.805,6.029,13.3015,4.60074,2470.74,2023-5-17T08:35:02Z
2023-05-17T06:35:54Z,42.805,6.029,13.3017,4.60081,2470.707,2023-5-17T08:38:06Z
2023-05-17T06:38:57Z,42.805,6.029,13.3017,4.60075,2470.717,2023-5-17T08:41:09Z
2023-05-17T06:42:00Z,42.805,6.029,13.3017,4.60079,2470.717,2023-5-17T08:44:12Z
2023-05-17T06:45:03Z,42.805,6.029,13.3017,4.60079,2470.717,2023-5-17T08:47:15Z
2023-05-17T06:48:06Z,42.805,6.029,13.3016,4.60078,2470.73,2023-5-17T08:50:18Z
2023-05-17T06:51:09Z,42.805,6.029,13.3015,4.60079,2470.73,2023-5-17T08:53:21Z
2023-05-17T06:54:12Z,42.805,6.029,13.3016,4.60075,2470.717,2023-5-17T08:56:24Z
2023-05-17T06:57:15Z,42.805,6.029,13.3015,4.60077,2470.693,2023-5-17T08:59:27Z
2023-05-17T07:00:19Z,42.805,6.029,13.3017,4.60077,2470.74,2023-5-17T09:02:30Z
2023-05-17T07:03:22Z,42.805,6.029,13.3015,4.60078,2470.707,2023-5-17T09:05:33Z
2023-05-17T07:06:25Z,42.805,6.029,13.3014,4.60073,2470.717,2023-5-17T09:08:36Z
2023-05-17T07:09:28Z,42.805,6.029,13.3015,4.60077,2470.73,2023-5-17T09:11:39Z
2023-05-17T07:12:31Z,42.805,6.029,13.3017,4.60076,2470.754,2023-5-17T09:14:43Z
2023-05-17T07:15:34Z,42.805,6.029,13.3015,4.60078,2470.693,2023-5-17T09:17:46Z
2023-05-17T07:18:37Z,42.805,6.029,13.3018,4.60075,2470.693,2023-5-17T09:20:49Z
2023-05-17T07:21:40Z,42.805,6.029,13.3017,4.60076,2470.67,2023-5-17T09:23:52Z
2023-05-17T07:24:43Z,42.805,6.029,13.3014,4.60079,2470.707,2023-5-17T09:26:55Z
2023-05-17T07:27:46Z,42.805,6.029,13.3016,4.60077,2470.693,2023-5-17T09:29:58Z
2023-05-17T07:30:49Z,42.805,6.029,13.3019,4.60080,2470.67,2023-5-17T09:33:01Z
2023-05-17T07:33:52Z,42.805,6.029,13.3015,4.60076,2470.693,2023-5-17T09:36:04Z
2023-05-17T07:36:55Z,42.805,6.029,13.3017,4.60075,2470.67,2023-5-17T09:39:07Z
2023-05-17T07:39:59Z,42.805,6.029,13.3017,4.60076,2470.707,2023-5-17T09:42:10Z
2023-05-17T07:43:02Z,42.805,6.029,13.3019,4.60075,2470.693,2023-5-17T09:45:13Z
2023-05-17T07:46:05Z,42.805,6.029,13.3017,4.60077,2470.717,2023-5-17T09:48:16Z
2023-05-17T07:49:08Z,42.805,6.029,13.3014,4.60076,2470.67,2023-5-17T09:51:19Z
2023-05-17T07:52:11Z,42.805,6.029,13.3018,4.60079,2470.707,2023-5-17T09:54:23Z
2023-05-17T07:55:14Z,42.805,6.029,13.3020,4.60082,2470.67,2023-5-17T09:57:26Z
2023-05-17T07:58:17Z,42.805,6.029,13.3015,4.60074,2470.693,2023-5-17T10:00:29Z
2023-05-17T08:01:20Z,42.805,6.029,13.3015,4.60076,2470.67,2023-5-17T10:03:32Z
2023-05-17T08:04:23Z,42.805,6.029,13.3018,4.60074,2470.684,2023-5-17T10:06:35Z
2023-05-17T08:07:26Z,42.805,6.029,13.3015,4.60077,2470.637,2023-5-17T10:09:38Z
2023-05-17T08:10:29Z,42.805,6.029,13.3015,4.60074,2470.67,2023-5-17T10:12:41Z
2023-05-17T08:13:32Z,42.805,6.029,13.3019,4.60074,2470.661,2023-5-17T10:15:44Z
2023-05-17T08:16:36Z,42.805,6.029,13.3018,4.60074,2470.624,2023-5-17T10:18:47Z
2023-05-17T08:19:39Z,42.805,6.029,13.3019,4.60076,2470.693,2023-5-17T10:21:50Z
2023-05-17T08:22:42Z,42.805,6.029,13.3020,4.60077,2470.646,2023-5-17T10:24:53Z
2023-05-17T08:25:45Z,42.805,6.029,13.3019,4.60076,2470.661,2023-5-17T10:27:56Z
2023-05-17T08:28:48Z,42.805,6.029,13.3017,4.60074,2470.624,2023-5-17T10:31:00Z
2023-05-17T08:31:49Z,42.805,6.029,13.3019,4.60076,2470.646,2023-5-17T10:34:01Z
2023-05-17T08:34:53Z,42.805,6.029,13.3019,4.60075,2470.661,2023-5-17T10:37:04Z
2023-05-17T08:37:56Z,42.805,6.029,13.3017,4.60074,2470.624,2023-5-17T10:40:07Z
2023-05-17T08:40:59Z,42.805,6.029,13.3015,4.60074,2470.661,2023-5-17T10:43:10Z
2023-05-17T08:44:02Z,42.805,6.029,13.3015,4.60074,2470.624,2023-5-17T10:46:13Z
2023-05-17T08:47:05Z,42.805,6.029,13.3015,4.60072,2470.646,2023-5-17T10:49:17Z
2023-05-17T08:50:08Z,42.805,6.029,13.3018,4.60073,2470.624,2023-5-17T10:52:20Z
2023-05-17T08:53:11Z,42.805,6.029,13.3015,4.60074,2470.637,2023-5-17T10:55:23Z
2023-05-17T08:56:14Z,42.805,6.029,13.3017,4.60075,2470.614,2023-5-17T10:58:26Z
2023-05-17T08:59:17Z,42.805,6.029,13.3017,4.60072,2470.661,2023-5-17T11:01:29Z
2023-05-17T09:02:20Z,42.805,6.029,13.3017,4.60077,2470.6,2023-5-17T11:04:32Z
2023-05-17T09:05:23Z,42.805,6.029,13.3017,4.60073,2470.6,2023-5-17T11:07:35Z
2023-05-17T09:08:27Z,42.805,6.029,13.3019,4.60073,2470.624,2023-5-17T11:10:38Z
2023-05-17T09:11:30Z,42.805,6.029,13.3020,4.60074,2470.637,2023-5-17T11:13:41Z
2023-05-17T09:14:33Z,42.805,6.029,13.3015,4.60074,2470.624,2023-5-17T11:16:44Z
2023-05-17T09:17:36Z,42.805,6.029,13.3019,4.60077,2470.614,2023-5-17T11:19:47Z
2023-05-17T09:20:39Z,42.805,6.029,13.3019,4.60071,2470.6,2023-5-17T11:22:51Z
2023-05-17T09:23:42Z,42.805,6.029,13.3017,4.60072,2470.637,2023-5-17T11:25:54Z
2023-05-17T09:26:45Z,42.805,6.029,13.3015,4.60074,2470.591,2023-5-17T11:28:57Z
2023-05-17T09:29:48Z,42.805,6.029,13.3016,4.60071,2470.6,2023-5-17T11:32:00Z
2023-05-17T09:32:51Z,42.805,6.029,13.3015,4.60069,2470.577,2023-5-17T11:35:03Z
2023-05-17T09:35:54Z,42.805,6.029,13.3016,4.60072,2470.577,2023-5-17T11:38:06Z
2023-05-17T09:38:57Z,42.805,6.029,13.3014,4.60074,2470.614,2023-5-17T11:41:09Z
2023-05-17T09:42:00Z,42.805,6.029,13.3016,4.60074,2470.624,2023-5-17T11:44:12Z
2023-05-17T09:45:03Z,42.805,6.029,13.3014,4.60073,2470.577,2023-5-17T11:47:15Z
2023-05-17T09:48:07Z,42.805,6.029,13.3012,4.60072,2470.6,2023-5-17T11:50:18Z
2023-05-17T09:51:10Z,42.805,6.029,13.3014,4.60072,2470.6,2023-5-17T11:53:21Z
2023-05-17T09:54:13Z,42.805,6.029,13.3017,4.60074,2470.6,2023-5-17T11:56:24Z
2023-05-17T09:57:16Z,42.805,6.029,13.3018,4.60070,2470.553,2023-5-17T11:59:27Z
2023-05-17T10:00:19Z,42.805,6.029,13.3019,4.60074,2470.6,2023-5-17T12:02:31Z
2023-05-17T10:03:22Z,42.805,6.029,13.3015,4.60073,2470.6,2023-5-17T12:05:34Z
2023-05-17T10:06:25Z,42.805,6.029,13.3014,4.60072,2470.637,2023-5-17T12:08:37Z
2023-05-17T10:09:28Z,42.805,6.029,13.3014,4.60072,2470.553,2023-5-17T12:11:40Z
2023-05-17T10:12:31Z,42.805,6.029,13.3015,4.60069,2470.614,2023-5-17T12:14:43Z
2023-05-17T10:15:34Z,42.805,6.029,13.3015,4.60069,2470.577,2023-5-17T12:17:46Z
2023-05-17T10:18:37Z,42.805,6.029,13.3019,4.60073,2470.567,2023-5-17T12:20:49Z
2023-05-17T10:21:40Z,42.805,6.029,13.3015,4.60074,2470.577,2023-5-17T12:23:52Z
2023-05-17T10:24:44Z,42.805,6.029,13.3017,4.60070,2470.553,2023-5-17T12:26:55Z
2023-05-17T10:27:47Z,42.805,6.029,13.3018,4.60072,2470.577,2023-5-17T12:29:58Z
2023-05-17T10:30:50Z,42.805,6.029,13.3019,4.60072,2470.591,2023-5-17T12:33:01Z
2023-05-17T10:33:53Z,42.805,6.029,13.3015,4.60074,2470.577,2023-5-17T12:36:04Z
2023-05-17T10:36:56Z,42.805,6.029,13.3015,4.60072,2470.577,2023-5-17T12:39:08Z
2023-05-17T10:39:59Z,42.805,6.029,13.3014,4.60070,2470.624,2023-5-17T12:42:11Z
2023-05-17T10:43:02Z,42.805,6.029,13.3011,4.60074,2470.553,2023-5-17T12:45:14Z
2023-05-17T10:46:05Z,42.805,6.029,13.3015,4.60074,2470.567,2023-5-17T12:48:17Z
2023-05-17T10:49:08Z,42.805,6.029,13.3016,4.60070,2470.567,2023-5-17T12:51:20Z
2023-05-17T10:52:11Z,42.805,6.029,13.3014,4.60071,2470.53,2023-5-17T12:54:23Z
2023-05-17T10:55:14Z,42.805,6.029,13.3016,4.60071,2470.567,2023-5-17T12:57:26Z
2023-05-17T10:58:17Z,42.805,6.029,13.3014,4.60074,2470.553,2023-5-17T13:00:29Z
2023-05-17T11:01:21Z,42.805,6.029,13.3016,4.60073,2470.553,2023-5-17T13:03:32Z
2023-05-17T11:04:24Z,42.805,6.029,13.3015,4.60074,2470.516,2023-5-17T13:06:35Z
2023-05-17T11:07:27Z,42.805,6.029,13.3015,4.60072,2470.53,2023-5-17T13:09:38Z
2023-05-17T11:10:30Z,42.805,6.029,13.3017,4.60079,2470.591,2023-5-17T13:12:41Z
2023-05-17T11:13:33Z,42.805,6.029,13.3015,4.60071,2470.553,2023-5-17T13:15:45Z
2023-05-17T11:16:36Z,42.805,6.029,13.3015,4.60074,2470.507,2023-5-17T13:18:48Z
2023-05-17T11:19:39Z,42.805,6.029,13.3014,4.60071,2470.544,2023-5-17T13:21:51Z
2023-05-17T11:22:42Z,42.805,6.029,13.3014,4.60072,2470.544,2023-5-17T13:24:54Z
2023-05-17T11:25:45Z,42.805,6.029,13.3017,4.60072,2470.544,2023-5-17T13:27:57Z
2023-05-17T11:28:48Z,42.805,6.029,13.3012,4.60076,2470.53,2023-5-17T13:31:00Z
2023-05-17T11:31:51Z,42.805,6.029,13.3019,4.60073,2470.553,2023-5-17T13:34:03Z
2023-05-17T11:34:54Z,42.805,6.029,13.3014,4.60070,2470.53,2023-5-17T13:37:06Z
2023-05-17T11:37:58Z,42.805,6.029,13.3015,4.60072,2470.544,2023-5-17T13:40:09Z
2023-05-17T11:41:01Z,42.805,6.029,13.3017,4.60072,2470.53,2023-5-17T13:43:12Z
2023-05-17T11:44:04Z,42.805,6.029,13.3014,4.60074,2470.553,2023-5-17T13:46:15Z
2023-05-17T11:47:07Z,42.805,6.029,13.3017,4.60072,2470.52,2023-5-17T13:49:18Z
2023-05-17T11:50:10Z,42.805,6.029,13.3019,4.60072,2470.553,2023-5-17T13:52:22Z
2023-05-17T11:53:13Z,42.805,6.029,13.3015,4.60074,2470.53,2023-5-17T13:55:25Z
2023-05-17T11:56:16Z,42.805,6.029,13.3019,4.60074,2470.52,2023-5-17T13:58:28Z
2023-05-17T11:59:19Z,42.805,6.029,13.3013,4.60077,2470.52,2023-5-17T14:01:31Z
2023-05-17T12:02:22Z,42.805,6.029,13.3019,4.60073,2470.544,2023-5-17T14:04:34Z
2023-05-17T12:05:25Z,42.805,6.029,13.3018,4.60076,2470.52,2023-5-17T14:07:37Z
2023-05-17T12:08:28Z,42.805,6.029,13.3017,4.60076,2470.507,2023-5-17T14:10:40Z
2023-05-17T12:11:31Z,42.805,6.029,13.3015,4.60072,2470.53,2023-5-17T14:13:43Z
2023-05-17T12:14:35Z,42.805,6.029,13.3013,4.60073,2470.52,2023-5-17T14:16:46Z
2023-05-17T12:17:38Z,42.805,6.029,13.3018,4.60076,2470.553,2023-5-17T14:19:49Z
2023-05-17T12:20:41Z,42.805,6.029,13.3018,4.60079,2470.507,2023-5-17T14:22:52Z
2023-05-17T12:23:44Z,42.805,6.029,13.3017,4.60072,2470.544,2023-5-17T14:25:55Z
2023-05-17T12:26:47Z,42.805,6.029,13.3019,4.60073,2470.53,2023-5-17T14:28:59Z
2023-05-17T12:29:50Z,42.805,6.029,13.3017,4.60072,2470.52,2023-5-17T14:32:02Z
2023-05-17T12:32:53Z,42.805,6.029,13.3015,4.60071,2470.53,2023-5-17T14:35:05Z
2023-05-17T12:35:56Z,42.805,6.029,13.3017,4.60073,2470.52,2023-5-17T14:38:08Z
2023-05-17T12:38:59Z,42.805,6.029,13.3014,4.60070,2470.544,2023-5-17T14:41:11Z
2023-05-17T12:42:02Z,42.805,6.029,13.3015,4.60072,2470.53,2023-5-17T14:44:14Z
2023-05-17T12:45:05Z,42.805,6.029,13.3014,4.60072,2470.52,2023-5-17T14:47:17Z
2023-05-17T12:48:08Z,42.805,6.029,13.3011,4.60069,2470.53,2023-5-17T14:50:20Z
2023-05-17T12:51:12Z,42.805,6.029,13.3014,4.60072,2470.507,2023-5-17T14:53:23Z
2023-05-17T12:54:15Z,42.805,6.029,13.3012,4.60072,2470.544,2023-5-17T14:56:26Z
2023-05-17T12:57:18Z,42.805,6.029,13.3015,4.60072,2470.483,2023-5-17T14:59:29Z
2023-05-17T13:00:21Z,42.805,6.029,13.3015,4.60072,2470.507,2023-5-17T15:02:32Z
2023-05-17T13:03:24Z,42.805,6.029,13.3014,4.60074,2470.507,2023-5-17T15:05:36Z
2023-05-17T13:06:27Z,42.805,6.029,13.3012,4.60077,2470.53,2023-5-17T15:08:39Z
2023-05-17T13:09:30Z,42.805,6.029,13.3013,4.60071,2470.53,2023-5-17T15:11:42Z
2023-05-17T13:12:33Z,42.805,6.029,13.3017,4.60072,2470.53,2023-5-17T15:14:45Z
2023-05-17T13:15:36Z,42.805,6.029,13.3013,4.60074,2470.53,2023-5-17T15:17:48Z
2023-05-17T13:18:39Z,42.805,6.029,13.3014,4.60072,2470.553,2023-5-17T15:20:51Z
2023-05-17T13:21:42Z,42.805,6.029,13.3015,4.60072,2470.544,2023-5-17T15:23:54Z
2023-05-17T13:24:45Z,42.805,6.029,13.3015,4.60073,2470.53,2023-5-17T15:26:57Z
2023-05-17T13:27:49Z,42.805,6.029,13.3016,4.60072,2470.53,2023-5-17T15:30:00Z
2023-05-17T13:30:52Z,42.805,6.029,13.3015,4.60074,2470.53,2023-5-17T15:33:03Z
2023-05-17T13:33:55Z,42.805,6.029,13.3015,4.60073,2470.544,2023-5-17T15:36:06Z
2023-05-17T13:36:58Z,42.805,6.029,13.3014,4.60071,2470.507,2023-5-17T15:39:09Z
2023-05-17T13:40:01Z,42.805,6.029,13.3012,4.60072,2470.567,2023-5-17T15:42:13Z
2023-05-17T13:43:04Z,42.805,6.029,13.3014,4.60073,2470.553,2023-5-17T15:45:16Z
2023-05-17T13:46:07Z,42.805,6.029,13.3016,4.60072,2470.591,2023-5-17T15:48:19Z
2023-05-17T13:49:10Z,42.805,6.029,13.3014,4.60073,2470.53,2023-5-17T15:51:22Z
2023-05-17T13:52:13Z,42.805,6.029,13.3014,4.60072,2470.553,2023-5-17T15:54:25Z
2023-05-17T13:55:16Z,42.805,6.029,13.3018,4.60073,2470.567,2023-5-17T15:57:28Z
2023-05-17T13:58:19Z,42.805,6.029,13.3015,4.60073,2470.577,2023-5-17T16:00:31Z
2023-05-17T14:01:22Z,42.805,6.029,13.3013,4.60072,2470.553,2023-5-17T16:03:34Z
2023-05-17T14:04:25Z,42.805,6.029,13.3015,4.60077,2470.591,2023-5-17T16:06:37Z
2023-05-17T14:07:29Z,42.805,6.029,13.3015,4.60075,2470.553,2023-5-17T16:09:40Z
2023-05-17T14:10:32Z,42.805,6.029,13.3019,4.60074,2470.553,2023-5-17T16:12:43Z
2023-05-17T14:13:35Z,42.805,6.029,13.3016,4.60072,2470.567,2023-5-17T16:15:46Z
2023-05-17T14:16:38Z,42.805,6.029,13.3015,4.60077,2470.553,2023-5-17T16:18:49Z
2023-05-17T14:19:41Z,42.805,6.029,13.3015,4.60071,2470.553,2023-5-17T16:21:53Z
2023-05-17T14:22:44Z,42.805,6.029,13.3019,4.60073,2470.591,2023-5-17T16:24:56Z
2023-05-17T14:25:47Z,42.805,6.029,13.3019,4.60074,2470.553,2023-5-17T16:27:59Z
2023-05-17T14:28:50Z,42.805,6.029,13.3015,4.60072,2470.591,2023-5-17T16:31:02Z
2023-05-17T14:31:55Z,42.805,6.029,13.3018,4.60075,2470.577,2023-5-17T16:34:06Z
2023-05-17T14:34:58Z,42.805,6.029,13.3014,4.60072,2470.6,2023-5-17T16:37:10Z
2023-05-17T14:38:01Z,42.805,6.029,13.3013,4.60075,2470.624,2023-5-17T16:40:13Z
2023-05-17T14:41:04Z,42.805,6.029,13.3016,4.60072,2470.6,2023-5-17T16:43:16Z
2023-05-17T14:44:07Z,42.805,6.029,13.3016,4.60074,2470.591,2023-5-17T16:46:19Z
2023-05-17T14:47:10Z,42.805,6.029,13.3017,4.60073,2470.614,2023-5-17T16:49:22Z
2023-05-17T14:50:13Z,42.805,6.029,13.3014,4.60072,2470.614,2023-5-17T16:52:25Z
2023-05-17T14:53:16Z,42.805,6.029,13.3014,4.60076,2470.586,2023-5-17T16:55:28Z
2023-05-17T14:56:19Z,42.805,6.029,13.3015,4.60074,2470.6,2023-5-17T16:58:31Z
2023-05-17T14:59:23Z,42.805,6.029,13.3011,4.60072,2470.637,2023-5-17T17:01:34Z
2023-05-17T15:02:26Z,42.805,6.029,13.3016,4.60072,2470.646,2023-5-17T17:04:37Z
2023-05-17T15:05:29Z,42.805,6.029,13.3014,4.60073,2470.624,2023-5-17T17:07:40Z
2023-05-17T15:08:32Z,42.805,6.029,13.3015,4.60072,2470.637,2023-5-17T17:10:43Z
2023-05-17T15:11:35Z,42.805,6.029,13.3015,4.60074,2470.661,2023-5-17T17:13:47Z
2023-05-17T15:14:38Z,42.805,6.029,13.3012,4.60073,2470.637,2023-5-17T17:16:50Z